�������l�o���
Date,Time,MP-1(��Sv/h),MP-2(��Sv/h),MP-3(��Sv/h),MP-4(��Sv/h),MP-5(��Sv/h),MP-6(��Sv/h),MP-7(��Sv/h),MP-8(��Sv/h),����,����(m/s),���J
2023/12/23,00:00,0.511,0.774,0.483,0.976,0.698,0.312,0.560,0.526,���k��,4.8,��
2023/12/23,00:10,0.512,0.776,0.483,0.976,0.698,0.311,0.561,0.525,���k��,6.0,��
2023/12/23,00:20,0.511,0.775,0.484,0.977,0.699,0.311,0.562,0.526,���k��,7.9,��
2023/12/23,00:30,0.510,0.775,0.482,0.974,0.698,0.312,0.562,0.525,���k��,7.8,��
2023/12/23,00:40,0.510,0.775,0.483,0.974,0.697,0.312,0.560,0.527,���k��,9.0,��
2023/12/23,00:50,0.511,0.775,0.483,0.976,0.697,0.312,0.561,0.527,���k��,6.6,��
2023/12/23,01:00,0.511,0.776,0.483,0.976,0.699,0.312,0.560,0.526,���k��,6.9,��
2023/12/23,01:10,0.512,0.777,0.482,0.976,0.697,0.311,0.562,0.525,���k��,8.3,��
2023/12/23,01:20,0.511,0.777,0.482,0.976,0.697,0.312,0.562,0.526,���k��,6.2,��
2023/12/23,01:30,0.511,0.778,0.485,0.978,0.696,0.313,0.561,0.525,���k��,6.5,��
2023/12/23,01:40,0.510,0.776,0.485,0.977,0.698,0.312,0.562,0.525,���k��,6.1,��
2023/12/23,01:50,0.511,0.776,0.483,0.979,0.698,0.311,0.562,0.525,���k��,6.8,��
2023/12/23,02:00,0.511,0.777,0.484,0.978,0.697,0.313,0.564,0.524,��,6.5,��
2023/12/23,02:10,0.512,0.779,0.484,0.977,0.696,0.312,0.561,0.527,���k��,7.3,��
2023/12/23,02:20,0.511,0.777,0.483,0.977,0.697,0.311,0.561,0.524,���k��,8.1,��
2023/12/23,02:30,0.511,0.777,0.484,0.976,0.696,0.312,0.563,0.527,���k��,6.5,��
2023/12/23,02:40,0.511,0.779,0.484,0.973,0.696,0.311,0.561,0.527,��,6.2,��
2023/12/23,02:50,0.512,0.778,0.485,0.976,0.699,0.312,0.562,0.525,���k��,5.1,��
2023/12/23,03:00,0.512,0.778,0.482,0.977,0.696,0.313,0.561,0.526,���k��,3.9,��
2023/12/23,03:10,0.512,0.776,0.484,0.978,0.698,0.312,0.560,0.525,���k��,3.3,��
2023/12/23,03:20,0.512,0.775,0.484,0.976,0.697,0.312,0.561,0.526,��,3.4,��
2023/12/23,03:30,0.510,0.775,0.482,0.976,0.698,0.310,0.561,0.524,���k��,3.7,��
2023/12/23,03:40,0.511,0.774,0.485,0.977,0.696,0.312,0.560,0.525,���k��,5.6,��
2023/12/23,03:50,0.511,0.776,0.484,0.977,0.697,0.311,0.561,0.525,���k��,4.6,��
2023/12/23,04:00,0.511,0.777,0.483,0.976,0.697,0.310,0.562,0.524,���k��,5.8,��
2023/12/23,04:10,0.511,0.777,0.483,0.978,0.697,0.311,0.562,0.528,��,5.8,��
2023/12/23,04:20,0.511,0.775,0.483,0.976,0.697,0.312,0.561,0.524,��,4.6,��
2023/12/23,04:30,0.511,0.776,0.483,0.979,0.695,0.314,0.559,0.525,��,3.8,��
2023/12/23,04:40,0.513,0.776,0.484,0.977,0.696,0.311,0.561,0.525,��,4.1,��
2023/12/23,04:50,0.512,0.775,0.484,0.977,0.693,0.312,0.561,0.526,���쐼,3.9,��
2023/12/23,05:00,0.512,0.774,0.483,0.976,0.696,0.312,0.560,0.528,��,3.8,��
2023/12/23,05:10,0.510,0.774,0.482,0.975,0.695,0.311,0.560,0.526,���쐼,2.2,��
2023/12/23,05:20,0.510,0.773,0.483,0.975,0.696,0.311,0.562,0.526,��,1.1,��
2023/12/23,05:30,0.512,0.774,0.483,0.976,0.696,0.312,0.560,0.525,���쐼,1.1,��
2023/12/23,05:40,0.509,0.776,0.483,0.976,0.696,0.309,0.558,0.525,���쐼,0.9,��
2023/12/23,05:50,0.511,0.774,0.483,0.976,0.697,0.311,0.559,0.524,���k��,0.8,��
2023/12/23,06:00,0.511,0.775,0.483,0.974,0.697,0.312,0.560,0.526,-,CALM,��
2023/12/23,06:10,0.510,0.776,0.484,0.977,0.695,0.311,0.559,0.525,�k,1.7,��
2023/12/23,06:20,0.510,0.774,0.483,0.978,0.695,0.311,0.560,0.523,�k��,2.0,��
2023/12/23,06:30,0.509,0.775,0.482,0.974,0.697,0.311,0.560,0.525,�k��,2.9,��
2023/12/23,06:40,0.510,0.775,0.482,0.975,0.697,0.310,0.560,0.524,�k��,1.5,��
2023/12/23,06:50,0.510,0.775,0.483,0.975,0.697,0.311,0.559,0.525,���k��,2.9,��
2023/12/23,07:00,0.512,0.774,0.483,0.977,0.697,0.310,0.559,0.524,��,2.6,��
2023/12/23,07:10,0.509,0.774,0.482,0.976,0.696,0.311,0.559,0.525,��,1.5,��
2023/12/23,07:20,0.511,0.769,0.483,0.975,0.696,0.310,0.560,0.524,��,1.2,��
2023/12/23,07:30,0.509,0.768,0.481,0.976,0.698,0.312,0.560,0.525,���쐼,1.7,��
2023/12/23,07:40,0.512,0.768,0.483,0.976,0.695,0.311,0.560,0.525,��쓌,1.7,��
2023/12/23,07:50,0.511,0.772,0.482,0.977,0.695,0.310,0.560,0.524,-,CALM,��
2023/12/23,08:00,0.509,0.772,0.483,0.976,0.695,0.311,0.561,0.524,�k�k��,0.9,��
2023/12/23,08:10,0.510,0.773,0.482,0.974,0.698,0.311,0.561,0.525,�쓌,0.8,��
2023/12/23,08:20,0.510,0.777,0.483,0.974,0.696,0.311,0.560,0.525,-,CALM,��
2023/12/23,08:30,0.510,0.776,0.481,0.973,0.696,0.310,0.559,0.525,���k��,0.9,��
2023/12/23,08:40,0.511,0.776,0.482,0.975,0.695,0.311,0.560,0.524,���쐼,1.2,��
2023/12/23,08:50,0.510,0.777,0.483,0.975,0.694,0.311,0.559,0.523,��쐼,1.7,��
2023/12/23,09:00,0.510,0.776,0.482,0.977,0.696,0.313,0.559,0.526,��쐼,1.2,��
2023/12/23,09:10,0.510,0.772,0.484,0.977,0.694,0.311,0.562,0.524,���k��,0.9,��
2023/12/23,09:20,0.511,0.772,0.484,0.975,0.696,0.311,0.561,0.524,���k��,0.6,��
2023/12/23,09:30,0.512,0.777,0.484,0.978,0.694,0.311,0.558,0.525,���k��,3.3,��
2023/12/23,09:40,0.512,0.772,0.483,0.977,0.697,0.311,0.561,0.524,��,4.1,��
2023/12/23,09:50,0.511,0.778,0.483,0.974,0.697,0.311,0.562,0.525,��,5.1,��
2023/12/23,10:00,0.510,0.776,0.484,0.975,0.697,0.311,0.559,0.526,��,5.5,��
2023/12/23,10:10,0.511,0.776,0.482,0.976,0.697,0.312,0.559,0.525,��,7.1,��
2023/12/23,10:20,0.512,0.777,0.483,0.976,0.697,0.311,0.560,0.526,��,7.1,��
2023/12/23,10:30,0.512,0.775,0.484,0.977,0.698,0.311,0.559,0.526,��,6.5,��
2023/12/23,10:40,0.512,0.777,0.483,0.976,0.697,0.311,0.561,0.525,��,7.5,��
2023/12/23,10:50,0.511,0.776,0.484,0.978,0.699,0.313,0.560,0.525,��,6.4,��
2023/12/23,11:00,0.510,0.778,0.484,0.977,0.697,0.312,0.559,0.525,��,6.1,��
2023/12/23,11:10,0.510,0.778,0.484,0.978,0.699,0.311,0.558,0.525,��,7.0,��
2023/12/23,11:20,0.510,0.775,0.484,0.978,0.699,0.312,0.560,0.526,��,5.6,��
2023/12/23,11:30,0.511,0.775,0.484,0.977,0.699,0.312,0.562,0.526,��,5.8,��
2023/12/23,11:40,0.511,0.776,0.487,0.977,0.699,0.311,0.561,0.526,��,4.3,��
2023/12/23,11:50,0.513,0.778,0.484,0.977,0.698,0.311,0.563,0.527,��,6.9,��
2023/12/23,12:00,0.513,0.776,0.486,0.978,0.699,0.313,0.561,0.526,��,7.9,��
2023/12/23,12:10,0.513,0.778,0.483,0.977,0.702,0.312,0.561,0.525,��,7.8,��
2023/12/23,12:20,0.513,0.778,0.487,0.979,0.699,0.313,0.562,0.525,��,5.5,��
2023/12/23,12:30,0.513,0.778,0.486,0.979,0.701,0.313,0.564,0.527,��,7.4,��
2023/12/23,12:40,0.513,0.775,0.485,0.979,0.700,0.313,0.563,0.527,��,6.1,��
2023/12/23,12:50,0.512,0.777,0.485,0.977,0.701,0.313,0.562,0.529,��,6.9,��
2023/12/23,13:00,0.513,0.776,0.485,0.980,0.701,0.311,0.562,0.529,���k��,6.1,��
2023/12/23,13:10,0.512,0.777,0.486,0.978,0.700,0.312,0.564,0.527,��,7.2,��
2023/12/23,13:20,0.513,0.777,0.485,0.979,0.701,0.312,0.563,0.529,���쐼,6.8,��
2023/12/23,13:30,0.514,0.779,0.486,0.980,0.700,0.313,0.562,0.527,���쐼,6.0,��
2023/12/23,13:40,0.513,0.778,0.485,0.978,0.701,0.313,0.563,0.527,��,7.1,��
2023/12/23,13:50,0.514,0.779,0.485,0.979,0.701,0.313,0.564,0.528,��,6.7,��
2023/12/23,14:00,0.512,0.776,0.485,0.979,0.702,0.313,0.562,0.529,��,9.0,��
2023/12/23,14:10,0.512,0.775,0.485,0.980,0.701,0.312,0.561,0.529,��,7.9,��
2023/12/23,14:20,0.515,0.777,0.484,0.980,0.701,0.313,0.565,0.528,��,6.0,��
2023/12/23,14:30,0.515,0.777,0.486,0.980,0.701,0.313,0.562,0.527,��,4.2,��
2023/12/23,14:40,0.513,0.778,0.486,0.981,0.701,0.312,0.563,0.528,���쐼,7.2,��
2023/12/23,14:50,0.512,0.778,0.486,0.981,0.700,0.313,0.562,0.527,��,6.6,��
2023/12/23,15:00,0.514,0.779,0.486,0.980,0.701,0.311,0.563,0.528,��,7.6,��
2023/12/23,15:10,0.514,0.779,0.486,0.981,0.701,0.312,0.563,0.526,��,6.7,��
2023/12/23,15:20,0.513,0.779,0.485,0.979,0.701,0.311,0.562,0.528,��,5.2,��
2023/12/23,15:30,0.513,0.779,0.484,0.980,0.701,0.312,0.564,0.527,��,7.3,��
2023/12/23,15:40,0.513,0.782,0.485,0.978,0.701,0.312,0.561,0.527,��,8.0,��
2023/12/23,15:50,0.513,0.778,0.487,0.980,0.701,0.313,0.563,0.527,��,7.0,��
2023/12/23,16:00,0.514,0.781,0.484,0.981,0.700,0.313,0.563,0.528,��,7.4,��
2023/12/23,16:10,0.514,0.777,0.487,0.981,0.700,0.313,0.561,0.527,��,7.3,��
2023/12/23,16:20,0.515,0.778,0.485,0.978,0.699,0.313,0.562,0.527,��,6.7,��
2023/12/23,16:30,0.512,0.779,0.484,0.980,0.702,0.312,0.562,0.526,��,7.4,��
2023/12/23,16:40,0.514,0.780,0.486,0.979,0.700,0.313,0.562,0.527,��,4.5,��
2023/12/23,16:50,0.513,0.779,0.484,0.980,0.702,0.312,0.562,0.527,���k��,3.5,��
2023/12/23,17:00,0.513,0.780,0.484,0.981,0.699,0.311,0.561,0.526,�k��,2.6,��
2023/12/23,17:10,0.512,0.779,0.484,0.980,0.700,0.313,0.562,0.527,���k��,2.3,��
2023/12/23,17:20,0.515,0.778,0.485,0.978,0.701,0.311,0.561,0.526,��,2.0,��
2023/12/23,17:30,0.511,0.779,0.484,0.979,0.700,0.312,0.562,0.526,���k��,1.8,��
2023/12/23,17:40,0.513,0.780,0.485,0.979,0.701,0.313,0.560,0.525,�k��,3.0,��
2023/12/23,17:50,0.512,0.779,0.484,0.978,0.700,0.311,0.561,0.525,�k�k��,3.8,��
2023/12/23,18:00,0.511,0.780,0.484,0.978,0.701,0.311,0.559,0.525,�k�k��,3.6,��
2023/12/23,18:10,0.513,0.779,0.485,0.978,0.702,0.313,0.561,0.524,�k,1.2,��
2023/12/23,18:20,0.513,0.778,0.485,0.979,0.700,0.311,0.560,0.525,�k�k��,2.8,��
2023/12/23,18:30,0.513,0.778,0.484,0.977,0.701,0.312,0.561,0.527,�k�k��,0.9,��
2023/12/23,18:40,0.513,0.781,0.484,0.979,0.700,0.312,0.559,0.526,���쐼,1.5,��
2023/12/23,18:50,0.513,0.778,0.484,0.978,0.700,0.311,0.560,0.525,��,2.6,��
2023/12/23,19:00,0.511,0.779,0.483,0.981,0.700,0.312,0.561,0.525,���k��,2.0,��
2023/12/23,19:10,0.511,0.779,0.482,0.978,0.699,0.311,0.560,0.525,�k��,2.0,��
2023/12/23,19:20,0.512,0.779,0.484,0.978,0.701,0.311,0.560,0.524,���k��,2.0,��
2023/12/23,19:30,0.512,0.779,0.484,0.979,0.700,0.312,0.560,0.524,���쐼,0.9,��
2023/12/23,19:40,0.513,0.779,0.485,0.978,0.702,0.311,0.559,0.525,��,0.6,��
2023/12/23,19:50,0.513,0.779,0.483,0.978,0.699,0.311,0.559,0.525,��,2.3,��
2023/12/23,20:00,0.511,0.778,0.484,0.979,0.699,0.312,0.559,0.525,��쐼,3.1,��
2023/12/23,20:10,0.513,0.779,0.485,0.978,0.700,0.310,0.560,0.525,��,1.5,��
2023/12/23,20:20,0.512,0.780,0.485,0.979,0.701,0.311,0.559,0.524,��,1.8,��
2023/12/23,20:30,0.510,0.778,0.483,0.978,0.699,0.312,0.559,0.526,��쐼,1.2,��
2023/12/23,20:40,0.512,0.781,0.485,0.978,0.700,0.311,0.559,0.524,�쐼,1.8,��
2023/12/23,20:50,0.511,0.778,0.484,0.979,0.700,0.311,0.561,0.524,��,1.9,��
2023/12/23,21:00,0.514,0.779,0.484,0.977,0.699,0.311,0.560,0.526,��,2.3,��
2023/12/23,21:10,0.511,0.779,0.484,0.979,0.701,0.312,0.559,0.523,���k��,2.0,��
2023/12/23,21:20,0.513,0.778,0.483,0.978,0.701,0.312,0.559,0.526,���쐼,2.3,��
2023/12/23,21:30,0.513,0.778,0.485,0.978,0.700,0.312,0.560,0.525,�k��,0.8,��
2023/12/23,21:40,0.511,0.778,0.483,0.978,0.699,0.311,0.559,0.525,-,CALM,��
2023/12/23,21:50,0.512,0.779,0.484,0.978,0.699,0.311,0.558,0.525,��,1.4,��
2023/12/23,22:00,0.513,0.779,0.483,0.977,0.699,0.313,0.560,0.525,��,0.8,��
2023/12/23,22:10,0.512,0.778,0.483,0.979,0.699,0.312,0.560,0.524,���k��,0.9,��
2023/12/23,22:20,0.512,0.780,0.485,0.978,0.697,0.311,0.560,0.526,�k,1.2,��
2023/12/23,22:30,0.513,0.778,0.483,0.978,0.700,0.311,0.559,0.524,�k�k��,2.6,��
2023/12/23,22:40,0.511,0.776,0.483,0.979,0.700,0.312,0.558,0.524,�k��,2.9,��
2023/12/23,22:50,0.512,0.778,0.484,0.976,0.699,0.311,0.560,0.525,�k��,2.6,��
2023/12/23,23:00,0.510,0.780,0.483,0.978,0.699,0.312,0.559,0.526,�k,1.8,��
2023/12/23,23:10,0.513,0.779,0.482,0.978,0.700,0.311,0.557,0.525,�k,1.4,��
2023/12/23,23:20,0.512,0.779,0.483,0.980,0.700,0.311,0.559,0.525,�k��,0.8,��
2023/12/23,23:30,0.510,0.779,0.483,0.980,0.699,0.311,0.559,0.524,���k��,0.8,��
2023/12/23,23:40,0.511,0.779,0.484,0.980,0.699,0.311,0.559,0.525,�k��,1.2,��
2023/12/23,23:50,0.510,0.776,0.483,0.979,0.699,0.311,0.559,0.524,�k�k��,1.1,��
